Regional Weather Roundup
Issued by NWS Glasgow, MT

Home | Current Version | Previous Version | Text Only | Print | Product List | Glossary On
Versions: 1 2 3 4 5 6 7 8 9 10 11 12 13 14 15 16 17 18 19 20 21 22 23 24 25 26 27 28 29 30 31 32 33 34 35 36 37 38 39 40 41 42 43 44 45 46 47 48 49 50
000
ASUS45 KGGW 271415
RWRGGW
HOURLY REGIONAL WEATHER ROUNDUP FOR NORTHEAST MONTANA
NATIONAL WEATHER SERVICE GLASGOW MONTANA
800 AM MDT SAT MAY 27 2017

NOTE: "FAIR" INDICATES FEW OR NO CLOUDS BELOW 12,000 FEET WITH NO
SIGNIFICANT WEATHER AND/OR OBSTRUCTIONS TO VISISBILITY.

NORTHEAST MONTANA


CITY           SKY/WX    TMP DP  RH WIND       PRES   REMARKS
GLASGOW        CLOUDY    54  41  61 W7        29.91R
PLENTYWOOD       N/A     54  39  57 W3          N/A
WOLF POINT     CLOUDY    58  40  51 SW7       29.90S
JORDAN           N/A     53  37  54 W12       29.96R
WINNETT          N/A     57  32  38 W6G14       N/A
SIDNEY         MOSUNNY   61  40  45 W10       29.89S
GLENDIVE       CLOUDY    52  40  63 S8        29.94S
MALTA            N/A     55  43  63 SW6         N/A
SCOBEY           N/A     56  35  45 W13       29.86S
OPHEIM           N/A     50  39  66 W8        29.73R

FORT PECK REPORTS


CITY           SKY/WX    TMP DP  RH WIND       PRES   REMARKS
FORT PECK        N/A     53  45  74 S6          N/A
THE PINES        N/A     56  37  49 CALM        N/A

SOUTHEAST MONTANA


CITY           SKY/WX    TMP DP  RH WIND       PRES   REMARKS
BILLINGS       MOSUNNY   49  37  63 SW17      30.07R
MILES CITY     SUNNY     55  38  52 SW8       29.99R
BAKER          CLOUDY    54  39  57 W15       29.98S
LIVINGSTON     CLOUDY    49  40  71 NW12      30.14R

CENTRAL MONTANA


CITY           SKY/WX    TMP DP  RH WIND       PRES   REMARKS
HAVRE          CLOUDY    55  39  54 SW12G23   29.97R
LEWISTOWN      MOSUNNY   48  38  68 CALM      30.06R
GREAT FALLS    CLOUDY    53  38  56 SW14      30.06R
CUT BANK       MOSUNNY   48  39  71 W10       30.04R
HELENA         SUNNY     49  40  71 CALM      30.14R
BUTTE          SUNNY     45  34  65 CALM      30.19R
BOZEMAN        SUNNY     48  38  68 S3        30.16R

WESTERN MONTANA


CITY           SKY/WX    TMP DP  RH WIND       PRES   REMARKS
MISSOULA       MOSUNNY   50  44  80 CALM      30.17R
KALISPELL      NOT AVBL

NORTH DAKOTA


CITY           SKY/WX    TMP DP  RH WIND       PRES   REMARKS
WILLISTON      SUNNY     59  42  53 W13       29.87R
DICKINSON      CLOUDY    54  37  52 W13       29.91S
MINOT          SUNNY     60  42  51 W12       29.81S
BISMARCK       SUNNY     59  41  51 VRB3      29.89S

SOUTHERN SASKATCHEWAN


CITY           SKY/WX    TMP DP  RH WIND       PRES   REMARKS
REGINA         PTSUNNY   55  45  67 NW8       29.80S
ESTEVAN        MOSUNNY   59  45  58 W18       29.80S
SWIFT CURRENT  SUNNY     55  45  67 W12       29.86R




USA.gov is the U.S. government's official web portal to all federal, state and local government web resources and services.